Вернуться в каталог

NIMBUS 2 DEB

АктивенLEO
NORAD 37893·DEBRIS·🇺🇸 United States

Запущен May 15, 1966 с Vandenberg Space Force Base

Loading…

Ближайшие Пролёты (ближайшие 24 часа)

TLE

СвежийSource: Space-Track

Эпоха: Sep 14, 2026, 10:07 UTC

1 37893U 66040AY  26257.42201424  .00001176  00000-0  19156-2 0  9996
2 37893 100.5044 236.2702 0058535 316.8080 195.8196 13.49690903696576

Отслеживайте NIMBUS 2 DEB в реальном времени с AllMySat

Download on the App Store